sat.trackr.live / text

‹ back to catalog

STARLINK-34236

NORAD 64743 · 2025-144V

PAYLOAD ACTIVE UNKNOWN

§ Identity

Operator
Country
US
Launch date
2025-07-02
Launch site
AFETR
Launch vehicle
Mass (kg)
RCS (m²)

Purposes: comms

External: N2YO · Heavens-Above · Gunter

§ Orbital elements

Epoch: 2026-09-20T13:16:03.286848Z

Period
93.85 min
Inclination
53.1641°
Eccentricity
0.0001528
Mean motion
15.34400998 rev/d
Perigee alt
461.7 km
Apogee alt
463.7 km
Semi-major
6,840.8 km
B*
5.1129e-4
RAAN
353.2727°
Arg perigee
92.1622°
Mean anomaly
267.9556°
Rev number
6,958

§ Raw data

STARLINK-342361 64743U 25144V   26263.55281582  .00016938  00000+0  51129-3 0  99922 64743  53.1641 353.2727 0001528  92.1622 267.9556 15.34400998 69584

JSON: /api/v1/satellites/64743 · /tle

For live sub-satellite position, see the globe view (requires WebGL).

§ Visibility from observer

Set your observer location to see the next 7 days of passes ≥ 10°. The values pass through the URL so the page stays shareable.

No JS? Fill the form by hand. The geolocation button needs JavaScript.